Location: Banksville Park
(38.5557°N, 75.1182°W)
Time: 03:36:57
(UTC+00:00)

Envisat - Pass Details

Date: 30 November 2020
Orbit: 764 x 766 km, 98.1° (Epoch: 16 January)

Event Time Altitude Azimuth Distance (km) Brightness Sun altitude
Rises 22:10:27 0° 170° (S) 3,217 6.4 -6.2°
Reaches altitude 10° 22:12:44 10° 171° (S) 2,295 5.7 -6.7°
Maximum altitude 22:17:48 77° 257° (WSW) 789 3.3 -7.6°
Drops below altitude 10° 22:22:54 10° 344° (NNW) 2,311 5.4 -8.5°
Sets 22:25:13 0° 346° (NNW) 3,241 6.2 -8.9°
